Flag for Germany Weather past 2 weeks in Lehrte, Lower Saxony, Germany

Now
58 °F

Clear.


Feels Like: 58 °F
Forecast: 56 / 73 °F
Wind: 2 mph from Northeast

Location: Hannover

Current Time: Sep 19, 2014 at 12:42:25 AM

Latest Report: Sep 19, 2014 at 12:00 AM


Visibility: 13 mi

Pressure: 29.92 "Hg

Humidity: 95%

Dew point: 57 °F

Location of LehrteLocation

Historic Weather in Lehrte — Graph

°F

Lehrte temperature yesterday

Maximum temperature yesterday: 75 °F (at 3:00 PM)
Minimum temperature yesterday: 54 °F (at 7:00 AM)
Average temperature yesterday: 64 °F

Past Weeks' High & Low Weather Summary

 TemperatureHumidityPressure
High78 °F (Sep 6, 2:00 PM)100% (Sep 4, 7:00 AM)30.25 "Hg (Sep 4, 7:00 AM)
Low48 °F (Sep 12, 3:00 AM)49% (Sep 17, 6:00 PM)29.87 "Hg (Sep 6, 4:00 PM)
Average62 °F86%30.06 "Hg
* Reported Midnight between Sep 3 and Sep 4 — Sep 18 11:00 PM, Lehrte, Weather by CustomWeather, © 2014

Note: Actual official high and low records may vary slightly from our data, if they occured in-between our weather recording intervals... More about our weather records

Advertising

Lehrte weather history for previous 24 hours

 ConditionsComfort  
Time TempWeatherWind HumidityBarometerVisibility
11:00 PM
Sep 18
62 °FPassing clouds.1 mph90%29.91 "Hg12 mi
10:00 PM64 °FPassing clouds.1 mph85%29.91 "Hg12 mi
9:00 PM65 °FPassing clouds.2 mph82%29.91 "Hg12 mi
8:00 PM67 °FPassing clouds.3 mph77%29.90 "Hg12 mi
7:00 PM71 °FPassing clouds.3 mph69%29.89 "Hg12 mi
6:00 PM74 °FPassing clouds.5 mph62%29.90 "Hg17 mi
5:00 PM75 °FPassing clouds.5 mph59%29.89 "Hg16 mi
4:00 PM75 °FPassing clouds.6 mph55%29.89 "Hg16 mi
3:00 PM75 °FPassing clouds.6 mph60%29.89 "Hg16 mi
2:00 PM73 °FSunny.5 mph63%29.90 "Hg16 mi
1:00 PM72 °FSunny.6 mph67%29.91 "Hg12 mi
12:00 PM68 °FSunny.6 mph74%29.92 "Hg11 mi
11:00 AM66 °FSunny.5 mph76%29.93 "Hg7 mi
10:00 AM62 °FSunny.5 mph85%29.93 "Hg5 mi
9:00 AM59 °FFog.5 mph93%29.93 "Hg4 mi
8:00 AM55 °FFog.3 mph99%29.92 "Hg4 mi
7:00 AM54 °FFog.2 mph100%29.92 "Hg2 mi
6:00 AM54 °FFog.2 mph99%29.92 "Hg2 mi
5:00 AM56 °FFog.2 mph98%29.93 "Hg4 mi
4:00 AM57 °FPassing clouds.2 mph95%29.93 "Hg6 mi
3:00 AM57 °FClear.3 mph93%29.94 "Hg7 mi
2:00 AM57 °FClear.2 mph92%29.94 "Hg9 mi
1:00 AM58 °FClear.2 mph90%29.94 "Hg9 mi
12:00 AM59 °FClear.3 mph88%29.94 "Hg11 mi
Weather by CustomWeather, © 2014

See weather overviewHow to use our weather pages